Temperature
21 21 20 20 20 19 20 20 19 19 19 19 19 19 19 19 18 18 18 18 18 18 18 18 18 18 17 17 17 17 17 17 17 17 17 17 17 17 17 17 17 17 16
21 21 20 20 20 19 19 20 19 19 19 19 19 19 19 18 18 18 18 18 18 18 17 17 17 17 17 17 17 17 17 17 17 17 17 17 17 17 17 17 16 16 16
21 20 20 20 20 20 19 19 19 19 19 19 19 19 19 18 18 18 18 18 17 17 17 17 17 17 17 17 17 17 17 17 17 16 17 17 16 16 16 16 16 16 16
21 20 20 20 20 20 19 19 19 19 19 19 19 19 18 18 18 18 18 17 17 17 17 17 17 17 17 17 17 16 16 16 16 16 16 16 16 16 16 16 16 16 16
20 20 20 20 20 19 19 19 19 19 18 18 18 18 18 18 18 17 17 17 17 17 17 17 17 16 16 16 16 16 16 16 16 16 16 16 16 16 15 15 15 15 15
20 20 20 20 19 19 19 19 19 18 18 18 18 18 18 18 17 17 17 17 17 17 17 16 16 16 16 16 16 16 16 16 16 15 15 15 15 15 15 15 15 15 15
20 20 19 19 19 19 19 18 18 18 18 18 18 18 18 17 17 17 17 16 16 16 16 16 16 16 16 16 16 16 15 15 15 15 15 15 15 15 15 15 14 14 15
20 19 19 19 18 18 18 18 18 18 18 18 18 17 17 17 17 17 16 16 16 16 16 16 16 16 16 16 15 15 15 15 15 15 15 15 15 15 14 14 14 14 14
19 19 19 19 18 18 18 18 18 18 18 17 17 17 17 17 17 17 16 16 16 16 16 16 15 15 15 15 15 15 15 15 15 15 15 14 14 14 14 14 14 14 14
19 19 19 18 18 18 18 18 18 17 17 17 17 17 17 17 16 17 16 16 16 16 16 15 15 15 15 15 15 15 15 15 14 14 14 14 14 14 14 14 14 14 13
19 19 19 18 18 18 18 17 17 17 17 17 16 16 16 16 16 16 16 16 16 16 15 15 15 15 15 14 14 14 14 14 14 14 14 14 14 14 14 14 14 13 13
18 18 18 18 18 17 17 17 17 17 17 16 16 16 16 16 16 16 16 16 15 15 15 15 15 15 14 14 14 14 14 14 14 14 14 14 14 14 14 14 13 13 13
18 18 18 17 17 17 17 17 17 17 16 16 16 16 16 16 16 16 16 15 15 15 15 15 15 14 14 14 14 14 14 14 14 13 13 14 14 14 13 13 13 13 13
18 18 17 17 17 17 17 16 16 16 16 16 16 16 16 16 16 16 15 15 15 15 14 14 14 14 14 14 14 14 14 14 13 13 13 13 13 13 13 13 13 13 12
17 17 17 17 16 16 16 16 16 16 16 16 16 16 16 16 16 15 15 15 15 15 14 14 14 14 14 14 14 14 13 13 13 13 13 13 13 13 13 12 12 12 12
17 17 16 16 16 16 16 16 16 16 16 16 15 15 15 15 15 15 15 15 14 14 14 14 14 13 13 13 13 13 13 13 13 13 13 12 12 12 12 12 12 11 11
16 16 16 16 16 16 15 15 15 15 15 15 15 15 14 14 14 14 14 14 14 14 14 13 13 13 13 13 13 13 13 13 12 12 12 12 12 11 11 11 11 11 11
15 15 15 15 15 15 15 15 15 15 15 14 14 14 14 14 14 14 14 14 14 13 13 13 13 13 12 12 12 12 12 12 12 12 11 11 11 11 11 11 11 10 10
15 15 15 15 15 15 15 14 14 14 14 14 14 14 14 14 13 13 13 13 13 13 13 12 12 12 12 12 12 12 11 11 11 11 11 11 11 10 10 10 10 10 10
14 14 14 14 14 14 14 14 14 14 14 14 13 13 13 13 13 13 13 12 12 12 12 12 12 11 11 11 11 11 11 11 11 11 10 10 10 10 10 10 10 9 9
14 14 14 14 14 13 13 13 13 13 13 13 13 13 13 13 12 12 12 12 11 11 11 11 11 11 11 10 10 10 10 10 10 10 10 10 10 9 9 9 9 9 9
13 13 13 13 13 13 13 13 13 13 12 12 12 12 12 12 12 12 12 11 11 11 11 10 10 10 10 10 10 10 10 9 9 9 9 9 9 9 8 8 8 8 8
12 12 12 12 12 12 12 12 12 12 12 12 12 12 12 12 11 11 11 11 11 11 10 10 10 10 10 10 9 9 9 9 9 9 9 8 8 8 8 8 8 8 8
12 12 12 12 12 12 12 12 11 11 11 11 11 11 11 11 11 11 10 10 10 10 10 10 10 9 9 9 9 9 9 8 8 8 8 8 8 8 8 7 7 7 7
12 12 11 11 11 11 11 11 11 11 11 11 11 11 11 11 10 10 10 10 10 9 9 9 9 9 9 9 8 8 8 8 8 8 8 8 7 7 7 7 7 7 7
11 11 11 11 11 11 11 11 11 11 11 11 10 10 10 10 10 10 10 9 9 9 9 9 9 9 8 8 8 8 8 8 7 7 7 7 7 7 7 7 7 6 6
Wind_Speed
7 6 5 5 5 4 4 4 4 4 4 4 3 3 3 3 3 3 2 2 2 2 2 2 3 2 2 1 1 1 1 2 3 4 2 2 1 2 2 5 6 7 8
7 6 6 5 5 5 5 5 5 4 4 4 4 3 3 3 3 3 3 3 3 3 3 2 3 3 2 2 1 2 2 2 3 3 3 2 2 3 3 3 3 5 6
6 6 5 5 5 6 6 5 5 5 4 4 4 4 4 4 3 3 3 3 3 3 3 3 4 3 3 3 2 2 2 2 2 2 3 2 2 1 1 2 2 2 4
5 5 5 5 6 6 5 5 5 5 4 4 4 4 4 4 3 3 3 3 3 4 4 4 4 4 4 4 3 3 2 1 1 1 2 2 2 2 0 1 2 2 3
6 5 5 5 4 4 4 4 4 4 5 5 4 3 3 3 3 3 4 4 4 4 4 4 4 4 5 4 3 3 3 2 1 1 2 1 2 1 2 2 2 3 3
6 6 5 4 4 4 4 4 4 3 3 4 4 4 4 4 4 5 4 3 3 3 4 4 3 3 4 5 5 4 5 4 3 2 2 2 3 3 2 2 1 1 3
6 5 4 4 5 4 4 4 4 4 4 4 5 4 4 4 5 5 5 3 3 3 4 4 3 2 2 1 2 2 3 5 6 4 4 4 3 4 3 2 2 3 4
5 5 4 5 4 3 3 4 4 3 3 4 4 4 4 4 5 5 5 4 3 4 5 5 4 3 2 2 1 1 2 3 4 4 5 5 4 4 4 4 4 3 4
4 3 4 5 5 4 4 4 3 3 3 3 3 4 4 4 4 5 5 3 4 5 4 4 4 4 5 4 3 2 2 3 3 4 5 5 5 5 3 1 1 1 3
3 3 3 4 4 5 5 4 3 3 3 3 3 3 4 4 4 4 5 3 3 3 3 3 5 5 5 5 3 3 4 5 3 2 3 3 3 4 5 5 4 3 2
2 2 2 3 4 5 4 3 3 3 2 2 2 3 3 5 5 5 5 4 3 3 3 3 3 4 5 5 5 5 7 5 3 3 3 3 3 3 3 4 5 5 4
1 2 2 3 3 3 3 3 3 3 2 2 2 3 3 4 5 5 6 6 4 3 4 4 4 5 6 6 5 6 7 4 2 2 3 4 4 4 4 4 5 6 6
1 1 2 2 2 2 3 3 2 3 3 3 3 3 4 3 4 6 7 7 6 4 4 5 6 7 6 5 7 7 4 2 2 3 4 5 5 4 2 2 2 3 4
1 1 1 1 1 1 2 3 3 3 3 3 3 4 4 3 3 3 3 3 4 4 4 5 5 5 4 4 4 3 2 3 3 4 4 4 3 2 2 2 2 2 2
1 1 1 1 2 2 2 2 3 4 5 5 5 4 4 4 6 6 4 3 4 4 3 1 1 1 2 2 2 2 2 1 2 3 3 3 3 3 3 2 2 2 2
1 1 2 2 2 2 2 1 2 3 4 5 6 5 4 5 5 5 5 5 4 4 3 2 2 3 3 3 3 3 2 2 3 2 3 4 4 4 3 2 2 2 3
1 2 1 1 1 2 2 2 2 2 2 3 4 4 4 4 4 4 4 3 1 4 3 3 4 4 4 3 3 3 3 3 3 3 3 4 3 3 2 3 2 3 3
1 1 1 1 1 1 2 2 2 2 2 2 3 4 4 3 3 3 2 2 0 2 2 3 4 3 3 3 3 3 3 3 3 3 3 3 3 3 3 3 3 4 4
1 2 1 1 1 1 1 1 1 2 2 2 1 2 2 2 2 2 2 2 3 3 4 3 3 3 3 3 3 3 3 3 3 3 3 3 3 3 3 4 4 5 4
2 3 2 1 1 1 1 1 1 2 2 2 2 3 1 1 0 1 2 2 3 3 3 3 3 3 3 3 3 3 3 3 3 3 3 3 3 3 4 4 4 3 4
2 3 3 2 1 1 1 1 1 1 2 2 2 3 4 3 2 2 2 2 2 3 3 3 3 3 3 3 3 2 2 3 2 3 3 3 3 3 3 3 3 3 3
2 2 2 1 2 1 2 1 1 1 1 1 2 1 2 2 2 2 2 2 2 3 3 2 3 3 3 3 3 2 2 3 3 3 3 3 3 3 3 3 2 3 3
2 2 2 2 2 2 2 1 1 1 1 1 1 0 1 1 2 2 2 2 2 2 2 1 2 2 2 2 2 2 3 3 4 4 3 3 3 3 3 3 4 4 4
2 2 2 2 2 2 2 2 2 2 2 2 1 1 1 2 2 2 2 2 2 2 2 2 2 3 3 2 2 2 2 3 3 3 4 4 3 3 3 3 4 4 4
2 2 2 2 2 2 2 2 2 2 2 2 1 1 1 2 2 2 1 1 1 2 2 2 2 2 2 1 1 2 3 3 4 4 3 3 3 3 3 3 3 3 3
2 2 2 2 2 2 2 2 2 2 2 1 1 1 1 1 1 2 1 1 2 1 1 1 1 1 1 2 3 3 3 3 3 4 3 2 2 3 3 3 4 3 3
Wind_Direction
186 185 186 190 191 188 192 198 193 195 196 199 196 189 190 194 192 183 211 215 218 250 263 254 265 262 270 284 269 249 225 181 229 277 269 264 238 230 220 217 224 221 224
185 181 187 186 184 191 203 203 195 198 205 199 188 188 199 202 202 197 209 215 216 233 252 260 274 274 272 265 254 252 245 212 196 258 286 285 257 239 228 230 231 230 229
180 178 185 189 195 204 212 208 198 198 205 198 187 196 207 206 206 207 209 215 219 229 236 239 256 257 264 262 256 257 254 244 198 217 273 289 286 266 271 274 262 263 247
172 175 186 198 205 210 211 211 206 201 202 202 201 208 210 204 203 211 212 220 235 246 245 243 246 237 240 246 247 244 236 245 244 227 272 293 295 295 271 277 292 276 269
174 185 199 199 200 199 199 203 206 208 210 206 208 215 211 208 221 219 223 228 237 252 255 252 245 240 238 237 239 226 213 217 233 233 260 286 292 311 273 260 267 287 279
182 196 200 198 200 202 200 196 192 203 207 196 204 210 214 231 239 223 218 231 235 243 255 266 258 255 254 253 246 222 203 204 215 218 237 246 253 251 256 257 257 298 290
176 187 189 189 194 204 205 198 204 210 206 203 209 208 213 229 233 233 230 224 234 241 243 248 256 260 232 254 268 261 247 228 205 191 215 231 231 227 215 249 242 234 250
178 190 192 188 193 194 192 200 204 207 213 213 217 219 221 237 232 230 226 227 241 248 241 233 229 245 235 211 222 256 269 270 234 207 212 229 234 228 207 212 229 251 272
177 190 193 187 190 189 196 210 209 202 214 216 212 215 218 243 239 231 212 220 242 255 256 243 230 228 239 219 205 236 274 286 269 230 226 239 244 233 208 175 214 240 279
197 196 190 181 188 195 202 210 210 208 222 224 228 221 211 220 226 213 201 213 244 259 268 260 243 241 253 228 210 216 248 263 266 284 279 280 266 250 226 202 201 210 237
209 200 189 191 200 201 202 206 206 207 216 223 230 232 221 222 223 211 199 207 228 241 256 264 266 261 259 247 231 229 242 247 248 247 263 275 280 269 249 222 208 205 214
178 188 201 207 212 204 194 210 202 189 194 223 238 257 254 242 231 230 220 219 217 218 242 249 252 258 260 254 242 246 251 251 250 253 264 268 266 265 256 241 229 227 228
169 205 223 220 210 194 188 198 197 191 202 218 227 242 258 259 250 244 235 236 229 225 242 247 259 264 264 259 252 253 246 231 229 246 260 262 257 259 261 263 261 251 263
197 233 222 208 226 225 204 193 194 203 211 218 222 238 251 258 264 267 252 243 241 246 261 268 268 269 266 268 271 263 239 228 228 242 255 262 269 268 253 246 255 257 276
200 218 241 227 214 228 229 215 211 218 211 213 223 223 227 249 253 240 222 225 226 229 228 255 278 286 294 298 295 285 265 247 253 261 264 273 270 264 262 256 239 231 240
205 230 230 227 224 223 224 256 258 229 234 223 224 218 230 237 244 236 227 228 225 193 162 211 241 244 249 255 264 277 268 252 251 254 254 259 260 256 262 264 248 240 252
221 234 240 236 235 234 217 210 243 281 277 252 247 241 235 248 255 256 249 239 210 154 171 226 237 241 245 243 245 250 258 256 246 241 246 251 253 255 257 258 254 249 248
310 293 269 254 249 242 232 227 219 218 252 289 285 258 246 243 258 270 253 108 113 187 225 240 245 245 244 241 246 254 264 273 266 257 253 252 247 245 249 252 246 242 244
311 289 271 270 262 247 231 217 216 222 225 246 270 291 258 232 246 270 191 188 221 235 236 243 248 245 243 242 246 250 254 258 264 261 263 263 259 255 256 259 253 246 241
322 307 301 292 286 282 261 233 224 222 232 233 231 238 217 135 136 284 230 231 237 248 247 245 250 246 240 242 244 247 252 258 266 266 267 265 263 257 256 260 255 252 246
331 327 331 338 326 302 288 252 234 216 226 239 247 239 189 181 205 217 224 234 240 252 254 252 252 248 243 245 240 236 241 252 247 253 261 262 264 267 265 258 254 252 254
342 341 337 320 314 318 310 284 259 231 224 248 271 289 178 174 197 210 219 241 243 243 248 251 258 251 243 242 235 225 236 251 259 259 261 268 274 271 269 264 259 257 255
340 333 329 319 308 303 305 305 296 275 261 253 244 173 147 195 218 225 237 239 239 240 238 234 250 259 257 255 242 226 235 248 248 243 245 256 264 265 259 254 252 256 255
339 339 336 325 317 302 290 291 281 262 251 243 245 236 220 219 227 235 240 250 257 255 251 240 232 237 245 258 269 261 261 261 254 241 235 237 247 257 260 262 258 250 249
345 350 342 324 321 322 319 309 298 282 270 260 246 244 234 217 229 246 255 261 256 258 261 258 254 252 252 255 276 299 305 296 289 278 253 232 237 246 252 258 261 259 251
340 341 334 328 324 330 329 318 314 307 295 285 273 259 233 222 227 242 253 261 259 253 255 263 264 264 285 292 290 299 295 287 287 290 271 246 251 259 263 261 261 258 254
Height
1520 1520 1521 1522 1523 1524 1524 1525 1525 1526 1526 1526 1526 1526 1526 1526 1526 1526 1527 1527 1526 1526 1526 1526 1525 1525 1524 1524 1523 1523 1522 1521 1520 1519 1518 1518 1518 1517 1517 1517 1516 1516 1516
1517 1518 1519 1520 1520 1521 1522 1522 1523 1523 1523 1523 1523 1523 1523 1523 1524 1524 1524 1524 1524 1524 1523 1523 1522 1522 1522 1521 1520 1520 1519 1518 1518 1516 1515 1515 1514 1514 1514 1514 1513 1513 1512
1515 1516 1517 1518 1518 1519 1519 1520 1520 1520 1520 1520 1520 1520 1521 1521 1521 1521 1521 1521 1521 1521 1521 1520 1520 1519 1519 1518 1517 1516 1516 1515 1514 1513 1512 1512 1511 1511 1511 1510 1510 1510 1509
1513 1514 1514 1515 1515 1516 1516 1517 1517 1517 1517 1517 1518 1518 1518 1518 1518 1518 1518 1518 1518 1518 1518 1517 1516 1516 1515 1515 1514 1513 1512 1512 1511 1510 1509 1508 1508 1508 1507 1507 1506 1506 1505
1510 1511 1511 1512 1512 1513 1513 1513 1514 1514 1514 1514 1514 1514 1515 1515 1514 1515 1515 1514 1514 1514 1514 1513 1513 1512 1512 1511 1511 1509 1509 1508 1507 1506 1506 1505 1504 1504 1503 1503 1502 1502 1501
1506 1506 1508 1509 1509 1509 1510 1510 1510 1510 1510 1511 1511 1511 1511 1511 1512 1512 1512 1511 1511 1511 1510 1510 1510 1509 1509 1508 1507 1506 1506 1505 1503 1503 1502 1501 1501 1501 1500 1500 1499 1498 1497
1503 1504 1505 1505 1506 1507 1507 1507 1507 1507 1508 1508 1508 1508 1508 1508 1508 1509 1509 1509 1508 1508 1507 1507 1506 1506 1505 1505 1504 1503 1502 1501 1500 1499 1499 1498 1498 1497 1497 1497 1496 1495 1494
1500 1501 1502 1502 1503 1504 1504 1504 1504 1505 1505 1504 1504 1505 1505 1505 1505 1505 1505 1506 1505 1504 1504 1503 1503 1502 1502 1501 1500 1499 1499 1498 1497 1496 1496 1495 1495 1495 1494 1494 1492 1492 1491
1498 1499 1499 1500 1500 1501 1501 1502 1502 1502 1501 1501 1501 1501 1501 1501 1502 1502 1502 1501 1500 1500 1500 1500 1499 1499 1498 1498 1497 1496 1495 1495 1495 1493 1493 1493 1492 1492 1491 1490 1489 1488 1487
1497 1497 1497 1497 1498 1498 1498 1499 1499 1499 1499 1499 1499 1499 1499 1499 1499 1498 1498 1498 1497 1497 1496 1496 1496 1495 1495 1494 1494 1493 1491 1491 1491 1490 1490 1490 1489 1489 1488 1487 1486 1485 1484
1494 1494 1494 1495 1495 1495 1496 1496 1497 1497 1497 1497 1497 1496 1496 1496 1496 1495 1495 1494 1494 1493 1493 1493 1493 1492 1491 1491 1490 1489 1488 1488 1488 1487 1486 1486 1485 1485 1484 1484 1483 1482 1481
1491 1491 1491 1492 1492 1492 1493 1494 1494 1494 1494 1494 1494 1494 1494 1493 1493 1492 1492 1491 1491 1490 1490 1490 1489 1489 1488 1488 1487 1486 1486 1485 1484 1483 1483 1482 1481 1481 1480 1480 1479 1478 1478
1488 1488 1488 1488 1489 1489 1490 1491 1491 1491 1491 1491 1491 1491 1490 1490 1489 1489 1489 1488 1488 1487 1487 1486 1486 1485 1485 1484 1483 1482 1482 1481 1480 1479 1478 1478 1478 1477 1476 1476 1475 1474 1473
1485 1485 1486 1486 1487 1487 1488 1488 1488 1488 1488 1488 1487 1487 1487 1486 1486 1486 1485 1485 1484 1484 1484 1483 1482 1482 1481 1480 1479 1478 1478 1477 1476 1475 1474 1474 1474 1473 1472 1471 1470 1469 1468
1483 1483 1483 1484 1484 1484 1485 1485 1485 1485 1485 1485 1484 1484 1483 1482 1482 1482 1482 1481 1480 1480 1480 1479 1478 1477 1476 1475 1475 1474 1474 1473 1472 1471 1470 1469 1469 1468 1467 1466 1465 1464 1463
1480 1480 1481 1481 1481 1481 1481 1481 1481 1482 1482 1481 1481 1480 1479 1479 1479 1478 1478 1477 1476 1476 1475 1473 1472 1472 1471 1471 1470 1469 1469 1468 1467 1466 1465 1464 1464 1463 1462 1461 1460 1459 1458
1478 1478 1477 1478 1478 1478 1478 1478 1477 1477 1478 1477 1477 1476 1476 1475 1475 1474 1474 1473 1472 1471 1470 1468 1468 1467 1466 1466 1465 1465 1464 1463 1463 1461 1460 1459 1458 1457 1456 1456 1455 1454 1453
1476 1475 1475 1475 1475 1475 1475 1474 1474 1473 1472 1472 1472 1472 1472 1471 1470 1470 1470 1469 1467 1466 1465 1464 1463 1463 1462 1461 1461 1460 1459 1458 1457 1456 1456 1454 1453 1452 1451 1450 1450 1449 1448
1473 1473 1472 1472 1471 1471 1471 1471 1470 1470 1469 1468 1468 1467 1467 1466 1466 1466 1465 1464 1462 1461 1460 1459 1459 1458 1457 1456 1455 1455 1454 1453 1452 1451 1450 1449 1448 1447 1446 1445 1444 1443 1443
1471 1470 1469 1469 1468 1468 1467 1467 1467 1466 1465 1464 1464 1463 1463 1462 1461 1460 1460 1459 1458 1457 1456 1455 1454 1453 1453 1452 1451 1450 1449 1448 1446 1445 1445 1444 1443 1442 1441 1440 1439 1438 1437
1469 1468 1467 1466 1466 1465 1464 1464 1463 1462 1462 1461 1460 1460 1459 1458 1457 1456 1456 1455 1454 1453 1452 1451 1450 1449 1448 1447 1446 1445 1444 1443 1441 1440 1440 1439 1437 1437 1435 1434 1434 1433 1432
1468 1466 1466 1464 1463 1462 1461 1461 1460 1460 1459 1458 1457 1456 1455 1454 1454 1453 1452 1451 1450 1449 1449 1447 1446 1445 1444 1443 1442 1440 1439 1438 1436 1435 1434 1433 1433 1432 1431 1430 1429 1428 1428
1467 1465 1464 1463 1462 1460 1459 1458 1458 1457 1456 1455 1454 1453 1452 1451 1451 1450 1449 1447 1447 1445 1445 1444 1443 1441 1440 1439 1438 1436 1434 1433 1432 1431 1430 1429 1428 1427 1426 1425 1424 1423 1423
1465 1463 1462 1461 1459 1458 1457 1456 1455 1454 1454 1453 1452 1451 1449 1448 1448 1447 1445 1444 1443 1442 1441 1440 1439 1437 1436 1435 1434 1432 1430 1429 1428 1427 1426 1425 1423 1422 1421 1420 1419 1418 1417
1464 1462 1460 1459 1457 1456 1454 1453 1452 1451 1451 1450 1449 1448 1447 1445 1444 1443 1442 1440 1439 1438 1437 1436 1435 1433 1432 1431 1429 1428 1427 1425 1424 1423 1422 1420 1419 1418 1416 1415 1414 1413 1412
1462 1460 1459 1457 1456 1454 1452 1451 1450 1449 1448 1447 1446 1445 1444 1442 1441 1439 1438 1437 1435 1434 1432 1431 1430 1429 1428 1426 1425 1423 1422 1420 1419 1418 1417 1416 1414 1413 1411 1410 1409 1408 1407